EW1340 Weather Reports


Display with metric or nautical units.
time (UTC)temp
F
wind
direction
speed
MPH
gust
MPH
rain 1hr
in
rain 24hr
in
rain mn
in
humidity
%
barometer
mb
20240717231508 84 303 2.0 5.0 0.00 0.02 0.01 64 912.1
20240717230006 84 278 2.0 5.0 0.00 0.02 0.01 65 912.1
20240717224505 84 309 4.0 9.0 0.00 0.02 0.01 65 912.1
20240717223005 84 305 4.0 8.0 0.00 0.02 0.01 65 912.1
20240717221504 84 315 4.0 8.0 0.00 0.02 0.01 64 912.1
20240717220006 84 328 3.0 13.0 0.00 0.02 0.01 64 912.1
20240717214504 84 292 7.0 11.0 0.00 0.03 0.01 63 912.1
20240717213009 84 15 4.0 9.0 0.00 0.03 0.01 65 912.1
20240717211503 83 29 5.0 9.0 0.00 0.03 0.01 66 912.1
20240717210002 83 349 4.0 9.0 0.00 0.03 0.01 65 912.1
20240717204600 83 324 4.0 11.0 0.00 0.04 0.01 66 912.1
20240717203100 83 335 5.0 12.0 0.00 0.04 0.01 66 912.1
20240717201559 82 318 6.0 14.0 0.00 0.04 0.01 67 912.1
20240717200138 82 305 10.0 18.0 0.00 0.04 0.01 66 912.1
20240717194600 85 313 10.0 17.0 0.00 0.04 0.01 63 912.1
20240717193100 86 264 9.0 17.0 0.00 0.04 0.01 58 912.1
20240717191557 86 264 9.0 19.0 0.00 0.04 0.01 61 912.1
20240717190057 87 265 14.0 26.0 0.00 0.04 0.01 61 912.1
20240717184557 87 261 9.0 21.0 0.00 0.04 0.01 60 912.1
20240717183127 88 288 6.0 18.0 0.00 0.04 0.01 61 912.1
20240717181556 88 314 11.0 18.0 0.00 0.04 0.01 59 912.1
20240717180128 88 293 8.0 20.0 0.00 0.04 0.01 60 912.1
20240717174556 87 282 15.0 23.0 0.00 0.04 0.01 57 912.1
20240717173100 88 274 9.0 17.0 0.00 0.04 0.01 55 912.1
20240717171553 88 287 11.0 23.0 0.00 0.04 0.01 60 912.1
20240717170052 88 267 13.0 21.0 0.00 0.04 0.01 58 912.1
20240717164600 87 281 9.0 19.0 0.00 0.04 0.01 64 912.1
20240717163047 86 224 7.0 19.0 0.00 0.04 0.01 66 912.1
20240717161556 85 253 6.0 19.0 0.00 0.04 0.01 69 912.1
20240717160043 85 212 10.0 13.0 0.00 0.04 0.01 70 912.1
20240717154541 84 224 5.0 14.0 0.00 0.04 0.01 74 912.1
20240717153036 83 257 5.0 15.0 0.00 0.04 0.01 76 912.1
20240717151537 82 228 4.0 10.0 0.00 0.04 0.01 78 912.1
20240717150030 82 243 6.0 12.0 0.00 0.04 0.01 78 912.1
20240717144528 81 253 4.0 11.0 0.00 0.04 0.01 80 912.1
20240717143029 80 260 8.0 12.0 0.00 0.04 0.01 80 912.1
20240717141534 80 245 7.0 11.0 0.00 0.04 0.01 82 912.1
20240717140022 79 272 6.0 11.0 0.00 0.04 0.01 82 912.1
20240717134521 78 241 11.0 15.0 0.00 0.04 0.01 83 912.1
20240717133018 78 188 6.0 11.0 0.00 0.04 0.01 85 912.1
20240717131515 77 196 7.0 11.0 0.00 0.04 0.01 86 912.1
20240717130014 77 241 7.0 16.0 0.00 0.04 0.01 87 912.1
20240717124511 76 206 6.0 16.0 0.00 0.04 0.01 87 912.1
20240717123015 75 203 6.0 10.0 0.00 0.04 0.01 88 912.1
20240717121508 75 222 2.0 9.0 0.00 0.04 0.01 89 912.1
20240717120008 74 183 2.0 8.0 0.00 0.04 0.01 90 912.1
20240717114510 74 175 1.0 6.0 0.00 0.04 0.01 90 912.1
20240717113009 74 166 2.0 8.0 0.00 0.04 0.01 90 912.1
20240717111516 74 217 2.0 5.0 0.00 0.04 0.01 91 912.1
20240717110005 74 185 1.0 4.0 0.00 0.04 0.01 91 912.1
20240717104509 73 164 1.0 5.0 0.00 0.04 0.01 91 912.1
20240717103002 74 154 2.0 5.0 0.00 0.04 0.01 91 912.1
20240717101601 74 160 3.0 6.0 0.00 0.04 0.01 90 912.1
20240717100100 74 166 2.0 5.0 0.00 0.04 0.01 90 912.1
20240717094559 74 193 3.0 7.0 0.00 0.04 0.01 90 912.1
20240717093105 74 187 3.0 5.0 0.01 0.04 0.01 91 912.1
20240717091604 74 167 0.0 0.0 0.01 0.04 0.01 90 912.1
20240717090102 74 160 0.0 2.0 0.01 0.04 0.01 90 912.1
20240717084556 75 175 0.0 0.0 0.01 0.04 0.01 89 912.1
20240717083110 75 210 0.0 0.0 0.00 0.03 0.00 89 912.1
20240717081601 75 215 0.0 0.0 0.00 0.03 0.00 89 912.1
20240717080052 75 217 0.0 2.0 0.00 0.03 0.00 89 912.1
20240717074552 75 208 2.0 6.0 0.00 0.03 0.00 89 912.1
20240717073055 75 160 1.0 7.0 0.00 0.03 0.00 89 912.1
20240717071550 76 162 1.0 4.0 0.00 0.03 0.00 89 912.1
20240717070055 76 168 2.0 5.0 0.00 0.03 0.00 89 912.1
20240717064548 76 181 1.0 6.0 0.00 0.03 0.00 89 912.1
20240717063048 76 171 1.0 7.0 0.00 0.03 0.00 89 912.1
20240717061547 76 166 2.0 5.0 0.00 0.03 0.00 88 912.1
20240717060057 76 142 2.0 4.0 0.00 0.03 0.00 88 912.1
20240717054555 76 184 2.0 7.0 0.00 0.03 0.00 88 912.1
20240717053045 76 199 2.0 5.0 0.00 0.03 0.00 89 912.1
20240717051540 76 157 2.0 6.0 0.00 0.03 0.00 89 912.1
20240717050035 76 123 2.0 5.0 0.00 0.03 0.00 89 912.1
20240717044535 76 155 1.0 6.0 0.00 0.03 0.03 89 912.1
20240717043034 76 161 1.0 6.0 0.00 0.03 0.03 88 912.1
20240717041534 76 160 2.0 7.0 0.00 0.03 0.03 87 912.1
20240717040034 77 154 2.0 5.0 0.00 0.03 0.03 86 912.1
20240717034534 77 174 2.0 4.0 0.00 0.03 0.03 85 912.1
20240717033032 77 149 3.0 5.0 0.00 0.03 0.03 85 912.1
20240717031533 77 157 2.0 7.0 0.00 0.03 0.03 84 912.1
20240717030031 78 152 2.0 7.0 0.00 0.03 0.03 83 912.1
20240717024530 78 158 4.0 7.0 0.00 0.03 0.03 83 912.1
20240717023029 78 152 2.0 8.0 0.00 0.03 0.03 83 912.1
20240717021529 78 144 4.0 8.0 0.00 0.03 0.03 82 912.1
20240717020059 79 132 5.0 9.0 0.00 0.03 0.03 81 912.1
20240717014528 79 97 3.0 7.0 0.00 0.03 0.03 80 912.1
20240717013028 80 135 2.0 7.0 0.00 0.03 0.03 78 912.1
20240717011527 80 147 3.0 6.0 0.00 0.03 0.03 77 912.1
20240717010027 81 143 4.0 9.0 0.00 0.03 0.03 75 912.1
20240717004529 82 174 3.0 9.0 0.01 0.03 0.03 73 912.1
20240717003026 83 151 3.0 10.0 0.01 0.03 0.03 71 912.1
20240717001526 83 149 4.0 11.0 0.01 0.03 0.03 71 912.1
20240717000025 83 135 7.0 14.0 0.01 0.03 0.03 70 912.1
20240716234538 85 132 9.0 20.0 0.00 0.02 0.02 67 912.1
20240716233024 92 142 3.0 13.0 0.00 0.02 0.02 50 912.1